Time,TemperatureF,DewpointF,PressureIn,WindDirection,WindDirectionDegrees,WindSpeedMPH,WindSpeedGustMPH,Humidity,HourlyPrecipIn,Conditions,Clouds,dailyrainin,SoftwareType,DateUTC
2013-07-06 00:10:00,69.9,69.0,30.14,South,179,0.0,-999.0,97,-99.99,,,0.00,weatherlink.com 1.10,2013-07-06 05:10:00,
2013-07-06 00:25:00,70.0,69.0,30.14,South,179,0.0,-999.0,97,-99.99,,,0.00,weatherlink.com 1.10,2013-07-06 05:25:00,
2013-07-06 00:40:00,70.0,69.0,30.14,South,179,0.0,-999.0,97,-99.99,,,0.00,weatherlink.com 1.10,2013-07-06 05:40:00,
2013-07-06 00:55:00,70.0,69.0,30.14,South,179,0.0,-999.0,97,-99.99,,,0.00,weatherlink.com 1.10,2013-07-06 05:55:00,
2013-07-06 01:10:00,70.1,69.0,30.13,South,179,0.0,-999.0,97,-99.99,,,0.00,weatherlink.com 1.10,2013-07-06 06:10:00,
2013-07-06 01:25:00,70.1,69.0,30.13,South,176,0.0,-999.0,97,-99.99,,,0.00,weatherlink.com 1.10,2013-07-06 06:25:00,
2013-07-06 01:40:00,70.3,69.0,30.13,South,176,0.0,-999.0,97,-99.99,,,0.00,weatherlink.com 1.10,2013-07-06 06:40:00,
2013-07-06 01:55:00,70.3,70.0,30.13,South,176,0.0,-999.0,98,-99.99,,,0.00,weatherlink.com 1.10,2013-07-06 06:55:00,
2013-07-06 02:10:00,70.4,70.0,30.12,South,178,4.0,-999.0,98,-99.99,,,0.00,weatherlink.com 1.10,2013-07-06 07:10:00,
2013-07-06 02:25:00,70.6,70.0,30.12,South,175,0.0,-999.0,98,-99.99,,,0.00,weatherlink.com 1.10,2013-07-06 07:25:00,
2013-07-06 02:40:00,70.5,70.0,30.12,SSW,193,1.0,-999.0,98,-99.99,,,0.00,weatherlink.com 1.10,2013-07-06 07:40:00,
2013-07-06 02:55:00,70.5,70.0,30.12,South,191,0.0,-999.0,98,-99.99,,,0.00,weatherlink.com 1.10,2013-07-06 07:55:00,
2013-07-06 03:10:00,70.5,70.0,30.13,South,191,0.0,-999.0,98,-99.99,,,0.00,weatherlink.com 1.10,2013-07-06 08:10:00,
2013-07-06 03:25:00,70.5,70.0,30.12,South,191,0.0,-999.0,98,-99.99,,,0.00,weatherlink.com 1.10,2013-07-06 08:25:00,
2013-07-06 03:40:00,70.5,70.0,30.12,South,191,0.0,-999.0,98,-99.99,,,0.00,weatherlink.com 1.10,2013-07-06 08:40:00,
2013-07-06 03:55:00,70.4,70.0,30.12,South,191,0.0,-999.0,98,-99.99,,,0.00,weatherlink.com 1.10,2013-07-06 08:55:00,
2013-07-06 04:10:00,70.3,70.0,30.12,South,191,0.0,-999.0,98,-99.99,,,0.00,weatherlink.com 1.10,2013-07-06 09:10:00,
2013-07-06 04:25:00,70.2,70.0,30.13,South,191,0.0,-999.0,98,-99.99,,,0.00,weatherlink.com 1.10,2013-07-06 09:25:00,
2013-07-06 04:40:00,70.2,70.0,30.13,South,191,0.0,-999.0,98,-99.99,,,0.00,weatherlink.com 1.10,2013-07-06 09:40:00,
2013-07-06 04:55:00,70.2,70.0,30.14,South,191,0.0,-999.0,98,-99.99,,,0.00,weatherlink.com 1.10,2013-07-06 09:55:00,
2013-07-06 05:10:00,70.2,70.0,30.14,South,191,0.0,-999.0,98,-99.99,,,0.00,weatherlink.com 1.10,2013-07-06 10:10:00,
2013-07-06 05:25:00,70.2,70.0,30.14,South,191,0.0,-999.0,98,-99.99,,,0.00,weatherlink.com 1.10,2013-07-06 10:25:00,
2013-07-06 05:40:00,70.3,70.0,30.14,South,191,0.0,-999.0,98,-99.99,,,0.00,weatherlink.com 1.10,2013-07-06 10:40:00,
2013-07-06 05:55:00,70.3,70.0,30.14,South,191,0.0,-999.0,98,-99.99,,,0.00,weatherlink.com 1.10,2013-07-06 10:55:00,
2013-07-06 06:10:00,70.2,70.0,30.14,South,191,0.0,-999.0,98,-99.99,,,0.00,weatherlink.com 1.10,2013-07-06 11:10:00,
2013-07-06 06:25:00,70.1,70.0,30.14,South,191,0.0,-999.0,98,-99.99,,,0.00,weatherlink.com 1.10,2013-07-06 11:25:00,
2013-07-06 06:40:00,69.5,69.0,30.14,South,184,0.0,-999.0,97,-99.99,,,0.00,weatherlink.com 1.10,2013-07-06 11:40:00,
2013-07-06 06:55:00,69.3,69.0,30.15,South,184,0.0,-999.0,98,-99.99,,,0.00,weatherlink.com 1.10,2013-07-06 11:55:00,
2013-07-06 07:10:00,69.4,69.0,30.15,South,184,0.0,-999.0,98,-99.99,,,0.00,weatherlink.com 1.10,2013-07-06 12:10:00,
2013-07-06 07:25:00,69.5,69.0,30.16,South,184,0.0,-999.0,98,-99.99,,,0.00,weatherlink.com 1.10,2013-07-06 12:25:00,
2013-07-06 07:40:00,69.8,69.0,30.16,South,184,0.0,-999.0,98,-99.99,,,0.00,weatherlink.com 1.10,2013-07-06 12:40:00,
2013-07-06 07:55:00,69.9,69.0,30.16,South,184,0.0,-999.0,98,-99.99,,,0.00,weatherlink.com 1.10,2013-07-06 12:55:00,
2013-07-06 08:10:00,69.9,69.0,30.17,South,184,0.0,-999.0,98,-99.99,,,0.00,weatherlink.com 1.10,2013-07-06 13:10:00,
2013-07-06 08:25:00,70.1,70.0,30.17,South,184,0.0,-999.0,98,-99.99,,,0.00,weatherlink.com 1.10,2013-07-06 13:25:00,
2013-07-06 08:40:00,70.5,70.0,30.17,South,184,0.0,-999.0,98,-99.99,,,0.00,weatherlink.com 1.10,2013-07-06 13:40:00,
2013-07-06 08:55:00,70.6,70.0,30.17,South,184,0.0,-999.0,98,-99.99,,,0.00,weatherlink.com 1.10,2013-07-06 13:55:00,
2013-07-06 09:10:00,70.7,70.0,30.17,South,184,0.0,-999.0,98,-99.99,,,0.00,weatherlink.com 1.10,2013-07-06 14:10:00,
2013-07-06 09:25:00,70.9,70.0,30.16,South,184,0.0,-999.0,98,-99.99,,,0.00,weatherlink.com 1.10,2013-07-06 14:25:00,
2013-07-06 09:40:00,71.1,71.0,30.17,South,184,0.0,-999.0,98,-99.99,,,0.00,weatherlink.com 1.10,2013-07-06 14:40:00,
2013-07-06 09:55:00,71.2,71.0,30.17,South,184,0.0,-999.0,98,-99.99,,,0.00,weatherlink.com 1.10,2013-07-06 14:55:00,
2013-07-06 10:10:00,71.2,71.0,30.17,South,184,0.0,-999.0,98,-99.99,,,0.00,weatherlink.com 1.10,2013-07-06 15:10:00,
2013-07-06 10:26:00,71.6,71.0,30.17,South,184,0.0,-999.0,98,-99.99,,,0.00,weatherlink.com 1.10,2013-07-06 15:26:00,
2013-07-06 10:40:00,72.1,72.0,30.17,South,184,0.0,-999.0,98,-99.99,,,0.00,weatherlink.com 1.10,2013-07-06 15:40:00,
2013-07-06 10:55:00,72.2,71.0,30.16,South,184,0.0,-999.0,97,-99.99,,,0.00,weatherlink.com 1.10,2013-07-06 15:55:00,
2013-07-06 11:10:00,72.3,71.0,30.16,South,184,0.0,-999.0,97,-99.99,,,0.00,weatherlink.com 1.10,2013-07-06 16:10:00,
2013-07-06 11:55:00,72.5,71.0,30.17,South,184,0.0,-999.0,96,-99.99,,,0.00,weatherlink.com 1.10,2013-07-06 16:55:00,
2013-07-06 12:25:00,72.4,71.0,30.17,South,182,0.0,-999.0,96,-99.99,,,0.00,weatherlink.com 1.10,2013-07-06 17:25:00,
2013-07-06 12:41:00,72.8,72.0,30.17,South,182,0.0,-999.0,96,-99.99,,,0.00,weatherlink.com 1.10,2013-07-06 17:41:00,
2013-07-06 13:10:00,72.4,71.0,30.16,South,169,2.0,-999.0,95,-99.99,,,0.00,weatherlink.com 1.10,2013-07-06 18:10:00,
2013-07-06 13:25:00,72.6,71.0,30.16,South,169,0.0,-999.0,95,-99.99,,,0.00,weatherlink.com 1.10,2013-07-06 18:25:00,
2013-07-06 13:40:00,72.9,71.0,30.16,South,169,0.0,-999.0,95,-99.99,,,0.00,weatherlink.com 1.10,2013-07-06 18:40:00,
2013-07-06 13:55:00,73.0,72.0,30.16,SSE,167,0.0,-999.0,95,-99.99,,,0.00,weatherlink.com 1.10,2013-07-06 18:55:00,
2013-07-06 15:10:00,72.7,71.0,30.14,SSE,167,0.0,-999.0,95,-99.99,,,0.00,weatherlink.com 1.10,2013-07-06 20:10:00,
2013-07-06 15:55:00,72.7,71.0,30.14,SSE,167,0.0,-999.0,95,-99.99,,,0.00,weatherlink.com 1.10,2013-07-06 20:55:00,
2013-07-06 16:10:00,72.4,71.0,30.14,SSE,166,0.0,-999.0,95,-99.99,,,0.00,weatherlink.com 1.10,2013-07-06 21:10:00,
2013-07-06 16:41:00,72.0,71.0,30.13,SE,142,0.0,-999.0,95,-99.99,,,0.00,weatherlink.com 1.10,2013-07-06 21:41:00,
2013-07-06 17:41:00,71.7,71.0,30.12,SE,142,0.0,-999.0,96,-99.99,,,0.00,weatherlink.com 1.10,2013-07-06 22:41:00,
2013-07-06 17:57:00,71.6,70.0,30.12,SE,142,0.0,-999.0,96,-99.99,,,0.00,weatherlink.com 1.10,2013-07-06 22:57:00,
2013-07-06 18:56:00,71.0,70.0,30.12,SE,144,0.0,-999.0,97,-99.99,,,0.00,weatherlink.com 1.10,2013-07-06 23:56:00,
2013-07-06 19:26:00,70.3,69.0,30.11,East,95,0.0,-999.0,97,-99.99,,,0.00,weatherlink.com 1.10,2013-07-07 00:26:00,
2013-07-06 19:41:00,70.3,69.0,30.11,East,95,0.0,-999.0,97,-99.99,,,0.00,weatherlink.com 1.10,2013-07-07 00:41:00,
2013-07-06 19:56:00,70.3,69.0,30.11,East,95,0.0,-999.0,97,-99.99,,,0.00,weatherlink.com 1.10,2013-07-07 00:56:00,
2013-07-06 20:11:00,70.2,69.0,30.12,East,95,0.0,-999.0,97,-99.99,,,0.00,weatherlink.com 1.10,2013-07-07 01:11:00,
2013-07-06 20:41:00,70.0,69.0,30.12,East,95,0.0,-999.0,97,-99.99,,,0.00,weatherlink.com 1.10,2013-07-07 01:41:00,
2013-07-06 20:56:00,69.9,69.0,30.12,East,98,0.0,-999.0,97,-99.99,,,0.00,weatherlink.com 1.10,2013-07-07 01:56:00,
2013-07-06 21:11:00,69.8,69.0,30.12,East,98,0.0,-999.0,97,-99.99,,,0.00,weatherlink.com 1.10,2013-07-07 02:11:00,
2013-07-06 21:41:00,69.8,69.0,30.13,East,98,0.0,-999.0,97,-99.99,,,0.00,weatherlink.com 1.10,2013-07-07 02:41:00,
2013-07-06 21:56:00,69.9,69.0,30.13,ESE,115,0.0,-999.0,97,-99.99,,,0.00,weatherlink.com 1.10,2013-07-07 02:56:00,
2013-07-06 22:26:00,70.1,69.0,30.14,ESE,115,0.0,-999.0,97,-99.99,,,0.00,weatherlink.com 1.10,2013-07-07 03:26:00,
2013-07-06 22:41:00,70.2,69.0,30.14,ESE,115,0.0,-999.0,97,-99.99,,,0.01,weatherlink.com 1.10,2013-07-07 03:41:00,
2013-07-06 22:56:00,70.1,69.0,30.14,ESE,115,0.0,-999.0,97,-99.99,,,0.01,weatherlink.com 1.10,2013-07-07 03:56:00,
2013-07-06 23:11:00,70.1,70.0,30.14,ESE,115,0.0,-999.0,98,-99.99,,,0.01,weatherlink.com 1.10,2013-07-07 04:11:00,
2013-07-06 23:26:00,70.2,70.0,30.15,ESE,118,0.0,-999.0,98,-99.99,,,0.01,weatherlink.com 1.10,2013-07-07 04:26:00,
2013-07-06 23:41:00,70.3,70.0,30.16,SE,132,0.0,-999.0,98,-99.99,,,0.01,weatherlink.com 1.10,2013-07-07 04:41:00,
2013-07-06 23:56:00,70.3,70.0,30.15,SE,132,0.0,-999.0,98,-99.99,,,0.01,weatherlink.com 1.10,2013-07-07 04:56:00,